Location: Baumgartsau
(48.4586°N, 14.0864°E)
Time: 13:41:59
(UTC+00:00)

BREEZE M DEB (TANK) - Pass Details

Date: 09 August 2020
Orbit: 304 x 11869 km, 49.5° (Epoch: 20 September)

Event Time Altitude Azimuth Distance (km) Brightness Sun altitude
Exits shadow 23:26:15 20° 159° (SSE) 9,316 7.9 -25.9°
Maximum altitude 23:39:24 26° 134° (SE) 6,449 7.3 -25.7°
Drops below altitude 10° 23:51:30 10° 86° (E) 4,940 7.3 -25.4°
Sets 23:54:45 0° 73° (ENE) 5,127 7.6 -25.3°
